Preston, MN

11:52 AM CDT on October 22, 2019 (GMT -0500)
Preston

Weather History for KFKA - September, 2019

Change the Weather History Date:

Sunday, September 15, 2019

  Actual Average (KRST) Record (KRST)
Temperature  
Mean Temperature 70 °F -  
Max Temperature 79 °F 66 °F 96 °F (1939)
Min Temperature 61 °F 47 °F 31 °F (2011)
Cooling Degree Days 5    
Growing Degree Days 20 (Base 50)    
Moisture  
Dew Point 62 °F    
Average Humidity 81    
Maximum Humidity 93    
Minimum Humidity 51    
Precipitation  
Precipitation 0.00 in - - ()
Sea Level Pressure  
Sea Level Pressure 30.01 in    
Wind  
Wind Speed 5 mph (South)    
Max Wind Speed 9 mph    
Max Gust Speed -    
Visibility 9 miles    
Events Thunderstorm    
Averages and records for this station are not official NWS values.
T = Trace of Precipitation, MM = Missing Value Source: NWS Daily Summary

Daily Weather History Graph

Daily Weather History Graph

Search for Another Location

Airport or City:

Astronomy

Sep. 15, 2019 Rise Set
Actual Time 6:47 AM CDT 7:19 PM CDT
Civil Twilight 6:18 AM CDT 7:48 PM CDT
Nautical Twilight 5:44 AM CDT 8:22 PM CDT
Astronomical Twilight 5:09 AM CDT 8:57 PM CDT
Moon 8:25 PM CDT (9/15) 7:59 AM CDT (9/15)
Length of Visible Light 13h 29m
Length of Day
12h 31m
Full, 98% of the Moon is Illuminated
Sep 15
Full
Sep 21
Last Quarter
Sep 28
New
Oct 5
First Quarter
Oct 13
Full

Hourly Weather History & Observations

Time (CDT) Temp. Dew Point Humidity Pressure Visibility Wind Dir Wind Speed Gust Speed Precip Events Conditions
12:15 AM 61.3 °F 57.6 °F 87% 30.00 in 10.0 mi South 3.5 mph - N/A   Scattered Clouds
12:35 AM 63.5 °F 58.6 °F 84% 29.99 in 10.0 mi SSW 6.9 mph - N/A   Mostly Cloudy
12:56 AM 65.1 °F 59.9 °F 83% 29.99 in 10.0 mi South 6.9 mph - N/A   Scattered Clouds
1:15 AM 64.4 °F 59.5 °F 84% 29.99 in 7.0 mi South 8.1 mph - N/A Thunderstorm Scattered Clouds
1:16 AM 64.2 °F 59.5 °F 85% 29.99 in 7.0 mi South 8.1 mph - N/A Thunderstorm Scattered Clouds
1:35 AM 63.9 °F 59.7 °F 86% 29.99 in 10.0 mi South 9.2 mph - N/A   Scattered Clouds
1:39 AM 64.2 °F 59.9 °F 86% 29.99 in 10.0 mi South 9.2 mph - N/A   Scattered Clouds
1:57 AM 63.7 °F 59.5 °F 86% 29.99 in 10.0 mi South 8.1 mph - N/A Thunderstorm Scattered Clouds
2:15 AM 63.5 °F 59.5 °F 87% 29.99 in 10.0 mi South 8.1 mph - N/A Thunderstorm Scattered Clouds
2:16 AM 63.5 °F 59.5 °F 87% 29.99 in 10.0 mi South 6.9 mph - N/A Thunderstorm Scattered Clouds
2:35 AM 62.6 °F 59.5 °F 90% 29.98 in 10.0 mi South 8.1 mph - N/A   Scattered Clouds
2:39 AM 62.6 °F 59.4 °F 89% 29.98 in 10.0 mi South 6.9 mph - N/A   Scattered Clouds
2:56 AM 62.1 °F 59.2 °F 90% 29.98 in 10.0 mi South 6.9 mph - N/A   Scattered Clouds
3:15 AM 62.1 °F 59.4 °F 91% 29.98 in 10.0 mi South 6.9 mph - N/A   Scattered Clouds
3:16 AM 62.1 °F 59.4 °F 91% 29.98 in 10.0 mi South 8.1 mph - N/A   Scattered Clouds
3:35 AM 62.6 °F 59.7 °F 90% 29.97 in 10.0 mi South 8.1 mph - N/A   Mostly Cloudy
3:39 AM 62.6 °F 59.9 °F 91% 29.97 in 10.0 mi South 8.1 mph - N/A   Mostly Cloudy
3:57 AM 63.5 °F 60.3 °F 89% 29.97 in 10.0 mi South 9.2 mph - N/A   Mostly Cloudy
4:15 AM 63.5 °F 60.3 °F 89% 29.97 in 10.0 mi South 5.8 mph - N/A   Mostly Cloudy
4:35 AM 63.1 °F 60.3 °F 90% 29.97 in 10.0 mi South 6.9 mph - N/A   Mostly Cloudy
4:58 AM 63.9 °F 60.8 °F 90% 29.98 in 10.0 mi South 8.1 mph - N/A   Mostly Cloudy
5:16 AM 64.0 °F 60.8 °F 89% 29.98 in 10.0 mi South 6.9 mph - N/A   Overcast
5:35 AM 64.4 °F 61.2 °F 89% 29.98 in 10.0 mi South 6.9 mph - N/A   Overcast
5:36 AM 64.4 °F 61.2 °F 89% 29.98 in 10.0 mi South 8.1 mph - N/A   Overcast
5:59 AM 64.2 °F 61.3 °F 90% 29.98 in 10.0 mi South 5.8 mph - N/A   Overcast
6:16 AM 64.0 °F 61.3 °F 91% 29.98 in 10.0 mi South 3.5 mph - N/A   Mostly Cloudy
6:35 AM 64.0 °F 61.7 °F 92% 29.98 in 10.0 mi South 6.9 mph - N/A   Mostly Cloudy
6:55 AM 63.9 °F 61.7 °F 93% 29.99 in 10.0 mi South 5.8 mph - N/A   Mostly Cloudy
6:56 AM 63.9 °F 61.7 °F 93% 29.99 in 10.0 mi South 5.8 mph - N/A   Mostly Cloudy
7:18 AM 63.7 °F 61.7 °F 93% 29.99 in 10.0 mi South 8.1 mph - N/A   Mostly Cloudy
7:36 AM 64.0 °F 62.1 °F 93% 29.99 in 10.0 mi South 6.9 mph - N/A   Overcast
7:55 AM 64.6 °F 62.6 °F 93% 29.99 in 7.0 mi South 4.6 mph - N/A   Overcast
7:56 AM 64.6 °F 62.6 °F 93% 29.99 in 7.0 mi South 4.6 mph - N/A   Overcast
8:15 AM 65.3 °F 63.0 °F 92% 30.00 in 10.0 mi South 4.6 mph - N/A   Overcast
8:19 AM 65.3 °F 63.0 °F 92% 30.00 in 10.0 mi South 5.8 mph - N/A   Overcast
8:38 AM 65.7 °F 63.3 °F 92% 30.00 in 7.0 mi South 5.8 mph - N/A   Overcast
8:55 AM 65.8 °F 63.5 °F 92% 30.00 in 10.0 mi South 4.6 mph - N/A   Overcast
9:15 AM 66.2 °F 63.5 °F 91% 30.00 in 7.0 mi SSW 4.6 mph - N/A   Overcast
9:35 AM 66.4 °F 63.9 °F 92% 30.01 in 10.0 mi SSW 3.5 mph - N/A   Overcast
9:36 AM 66.4 °F 63.9 °F 92% 30.01 in 10.0 mi SSW 3.5 mph - N/A   Overcast
9:59 AM 66.6 °F 64.0 °F 92% 30.01 in 7.0 mi Calm Calm - N/A   Overcast
10:16 AM 67.1 °F 64.4 °F 91% 30.01 in 3.0 mi WSW 4.6 mph - N/A   Overcast
10:36 AM 67.1 °F 64.6 °F 92% 30.01 in 2.0 mi Calm Calm - N/A   Overcast
10:55 AM 67.3 °F 65.1 °F 93% 30.01 in 2.5 mi Calm Calm - N/A   Overcast
10:56 AM 67.3 °F 65.1 °F 93% 30.01 in 2.5 mi Calm Calm - N/A   Overcast
11:15 AM 67.8 °F 65.5 °F 92% 30.02 in 2.0 mi Calm Calm - N/A   Overcast
11:19 AM 68.0 °F 65.7 °F 92% 30.02 in 2.5 mi West 3.5 mph - N/A   Overcast
11:37 AM 68.0 °F 65.7 °F 92% 30.03 in 4.0 mi WNW 4.6 mph - N/A   Overcast
11:55 AM 68.2 °F 65.7 °F 92% 30.03 in 3.0 mi NW 5.8 mph - N/A   Overcast
12:15 PM 68.4 °F 66.2 °F 93% 30.04 in 2.0 mi NW 4.6 mph - N/A   Overcast
12:16 PM 68.4 °F 66.2 °F 93% 30.04 in 2.0 mi NW 3.5 mph - N/A   Overcast
12:35 PM 69.8 °F 66.7 °F 90% 30.04 in 7.0 mi NNW 3.5 mph - N/A   Overcast
12:36 PM 69.8 °F 66.6 °F 89% 30.04 in 7.0 mi NW 3.5 mph - N/A   Overcast
12:58 PM 72.5 °F 65.7 °F 79% 30.04 in 10.0 mi WNW 3.5 mph - N/A   Mostly Cloudy
1:16 PM 73.6 °F 65.5 °F 76% 30.03 in 10.0 mi Calm Calm - N/A   Scattered Clouds
1:35 PM 74.7 °F 65.7 °F 73% 30.03 in 10.0 mi Calm Calm - N/A   Clear
1:36 PM 74.8 °F 65.7 °F 73% 30.03 in 10.0 mi Calm Calm - N/A   Clear
1:55 PM 75.6 °F 63.9 °F 67% 30.03 in 10.0 mi Calm Calm - N/A   Clear
1:56 PM 75.4 °F 63.9 °F 67% 30.03 in 10.0 mi Calm Calm - N/A   Clear
2:15 PM 77.0 °F 65.1 °F 67% 30.02 in 10.0 mi Calm Calm - N/A   Clear
2:36 PM 77.4 °F 64.2 °F 64% 30.02 in 10.0 mi North 3.5 mph - N/A   Clear
2:55 PM 78.1 °F 63.9 °F 61% 30.01 in 10.0 mi North 3.5 mph - N/A   Clear
2:56 PM 78.1 °F 64.0 °F 62% 30.01 in 10.0 mi NNW 3.5 mph - N/A   Clear
3:15 PM 78.3 °F 64.6 °F 63% 30.01 in 10.0 mi Calm Calm - N/A   Clear
3:16 PM 78.3 °F 64.6 °F 63% 30.01 in 10.0 mi Calm Calm - N/A   Clear
3:35 PM 79.2 °F 64.6 °F 61% 30.01 in 10.0 mi Calm Calm - N/A   Clear
3:39 PM 79.0 °F 64.6 °F 61% 30.01 in 10.0 mi Calm Calm - N/A   Clear
3:57 PM 79.2 °F 61.9 °F 55% 30.01 in 10.0 mi North 4.6 mph - N/A   Clear
4:16 PM 79.2 °F 63.0 °F 57% 30.01 in 10.0 mi North 4.6 mph - N/A   Clear
4:35 PM 79.5 °F 60.1 °F 51% 30.01 in 10.0 mi North 3.5 mph - N/A   Clear
4:36 PM 79.3 °F 60.1 °F 52% 30.01 in 10.0 mi Calm Calm - N/A   Clear
4:55 PM 79.2 °F 62.1 °F 56% 30.02 in 10.0 mi Calm Calm - N/A   Clear
5:18 PM 79.0 °F 62.8 °F 57% 30.02 in 10.0 mi North 3.5 mph - N/A   Clear
5:37 PM 78.8 °F 62.4 °F 57% 30.02 in 10.0 mi North 3.5 mph - N/A   Clear
5:56 PM 77.9 °F 62.8 °F 60% 30.02 in 10.0 mi Calm Calm - N/A   Clear
6:15 PM 77.2 °F 62.4 °F 60% 30.03 in 10.0 mi Calm Calm - N/A   Clear
6:16 PM 77.2 °F 62.6 °F 61% 30.03 in 10.0 mi Calm Calm - N/A   Clear
6:35 PM 76.3 °F 63.5 °F 64% 30.03 in 10.0 mi Calm Calm - N/A   Clear
6:40 PM 76.1 °F 63.1 °F 64% 30.03 in 10.0 mi Calm Calm - N/A   Clear
6:57 PM 76.1 °F 61.3 °F 60% 30.03 in 10.0 mi Calm Calm - N/A   Clear
7:16 PM 74.7 °F 61.9 °F 64% 30.03 in 10.0 mi Calm Calm - N/A   Clear
7:35 PM 74.5 °F 60.1 °F 61% 30.03 in 7.0 mi Calm Calm - N/A   Clear
7:36 PM 74.5 °F 60.3 °F 61% 30.03 in 10.0 mi Calm Calm - N/A   Clear
7:55 PM 73.2 °F 61.7 °F 67% 30.04 in 10.0 mi Calm Calm - N/A   Clear
7:59 PM 73.2 °F 61.7 °F 67% 30.04 in 10.0 mi Calm Calm - N/A   Clear
8:16 PM 71.8 °F 62.4 °F 72% 30.04 in 10.0 mi Calm Calm - N/A   Clear
8:35 PM 69.8 °F 63.5 °F 80% 30.04 in 10.0 mi Calm Calm - N/A   Clear
8:36 PM 69.6 °F 63.3 °F 80% 30.04 in 10.0 mi Calm Calm - N/A   Clear
8:59 PM 68.9 °F 63.9 °F 84% 30.04 in 10.0 mi Calm Calm - N/A   Clear
9:17 PM 67.8 °F 63.7 °F 87% 30.05 in 10.0 mi Calm Calm - N/A   Clear
9:36 PM 68.5 °F 62.8 °F 82% 30.05 in 10.0 mi Calm Calm - N/A   Clear
9:55 PM 65.3 °F 62.2 °F 90% 30.05 in 10.0 mi SSE 3.5 mph - N/A   Clear
10:19 PM 65.5 °F 63.1 °F 92% 30.06 in 10.0 mi South 3.5 mph - N/A   Clear
10:56 PM 64.0 °F 61.7 °F 92% 30.07 in 10.0 mi South 3.5 mph - N/A   Clear
11:15 PM 64.4 °F 61.2 °F 89% 30.07 in 10.0 mi SSE 3.5 mph - N/A   Clear
11:20 PM 65.3 °F 61.2 °F 86% 30.07 in 10.0 mi South 3.5 mph - N/A   Clear
11:36 PM 65.3 °F 60.4 °F 84% 30.07 in 10.0 mi South 3.5 mph - N/A   Clear
11:55 PM 63.7 °F 59.9 °F 87% 30.07 in 10.0 mi South 3.5 mph - N/A   Clear